Regional Weather Roundup
Issued by NWS

Home | Current Version | Previous Version | Graphics & Text | Print | Product List | Glossary On
Versions: 1 2 3 4 5 6 7 8 9 10 11 12 13 14 15 16 17 18 19 20 21 22 23 24 25 26 27 28 29 30 31 32 33 34 35 36 37 38 39 40 41 42 43 44 45 46 47 48 49 50
000
ASUS43 KIND 310109
RWRIN

WEATHER ROUNDUP FOR INDIANA
NATIONAL WEATHER SERVICE INDIANAPOLIS IN
900 PM EDT THU OCT 30 2014

NOTE: "FAIR" INDICATES FEW OR NO CLOUDS BELOW 12,000 FEET WITH NO
SIGNIFICANT WEATHER AND/OR OBSTRUCTIONS TO VISIBILITY.

* - STATION DOES NOT REPORT WEATHER SUCH AS PRECIPITATION OR FOG.

+ - STATION NOT QUALITY CONTROLLED BY THE NATIONAL WEATHER SERVICE.
    USE DATA WITH CAUTION...ESPECIALLY DEWPOINT AND RELATIVE
    HUMIDITY OBSERVATIONS.

INZ001>003-010>013-019-020-310200-
NORTHWEST INDIANA

CITY           SKY/WX    TMP DP  RH WIND       PRES   REMARKS
GARY /AIRPORT/ CLOUDY    50  36  57 W6        30.07S
KNOX *+        CLOUDY    45  37  73 CALM      30.05F
LA PORTE +     CLOUDY    46  39  79 CALM      30.06F
MICHIGAN CITY+ CLOUDY    45  32  61 SW3       30.06F
MONTICELLO +   CLOUDY    47  37  67 CALM      30.05F
RENSSELAER +   MOCLDY    45  37  76 CALM      30.07S
VALPARAISO     CLOUDY    45  36  70 W3        30.06F

$$

LMZ046-743>745-310200-
SOUTHERN LAKE MICHIGAN

STATION/POSITION TIME  TEMP WIND        PRES
                       AIR  DIR/SP/G
                 (UTC) (F)  (DEG/KT/KT) (MB)
MICHIGAN CITY    0100   49  190/  8/ 11   N/A

$$

INZ004-005-014>016-021>024-310200-
NORTH CENTRAL INDIANA

CITY           SKY/WX    TMP DP  RH WIND       PRES   REMARKS
ELKHART        CLOUDY    46  34  61 CALM      30.06S
GOSHEN         CLOUDY    45  37  73 W5        30.05F
LOGANSPORT +   CLOUDY    46  36  66 N3        30.06F
PERU/GRISSOM   CLOUDY    49  37  65 N3        30.05F
ROCHESTER +    CLOUDY    50  34  53 CALM      30.06F
SOUTH BEND     CLOUDY    48  34  58 SW6       30.06F
WARSAW +       CLOUDY    45  36  70 CALM      30.06S

$$

INZ006>009-017-018-025>027-310200-
NORTHEAST INDIANA

CITY           SKY/WX    TMP DP  RH WIND       PRES   REMARKS
ANGOLA *+      CLOUDY    45  36  70 S3        30.04F
AUBURN +       CLOUDY    45  36  70 CALM      30.06F
FORT WAYNE     CLOUDY    45  36  70 SE7       30.07F
HUNTINGTON +   CLOUDY   N/A N/A N/A SE3       30.05F

$$

INZ028-029-035-036-043>045-051>053-310200-
WEST CENTRAL INDIANA

CITY           SKY/WX    TMP DP  RH WIND       PRES   REMARKS
GREENCASTLE +  CLOUDY    46  37  71 CALM      30.06S
LAFAYETTE      CLOUDY    47  38  71 CALM      30.06S
TERRE HAUTE    CLOUDY    49  44  83 CALM      30.06S

$$

INZ030>032-037>040-046>048-054>057-064-065-310200-
CENTRAL INDIANA

CITY           SKY/WX    TMP DP  RH WIND       PRES   REMARKS
CP ATTERBURY + CLOUDY    46  37  71 CALM      30.07S
COLUMBUS       CLOUDY    48  41  76 CALM      30.06S
FRANKFORT +    CLOUDY    47  40  75 CALM      30.07F
INDIANAPOLIS   CLOUDY    51  35  54 CALM      30.05S
-EAGLE CREEK   CLOUDY    49  38  65 CALM      30.05S
KOKOMO *+      CLOUDY    48  37  66 CALM      30.06F
MARION +       CLOUDY    46  37  69 CALM      30.06F HAZE
MT COMFORT *+  CLOUDY    46  32  57 CALM      30.07S
SHELBYVILLE    CLOUDY    48  38  68 CALM      30.06S
ZIONSVILLE +   LGT RAIN  47  40  78 CALM      30.06F

$$

INZ033-034-041-042-049-050-058-059-310200-
EAST CENTRAL INDIANA

CITY           SKY/WX    TMP DP  RH WIND       PRES   REMARKS
MUNCIE         CLOUDY    46  37  71 SE3       30.06S

$$

INZ060-061-067>069-081>083-085>088-310200-
SOUTHWEST INDIANA

CITY           SKY/WX    TMP DP  RH WIND       PRES   REMARKS
EVANSVILLE     CLOUDY    51  42  71 CALM      30.06S
HUNTINGBURG *+ MOCLDY    48  37  66 CALM      30.06F
WASHINGTON +   CLOUDY    49  46  86 CALM      30.05S

$$

INZ062-063-066-070>080-084-089>092-310200-
SOUTH CENTRAL AND SOUTHEAST INDIANA

CITY           SKY/WX    TMP DP  RH WIND       PRES   REMARKS
BEDFORD +      DRIZZLE   50  37  62 CALM      30.05
BLOOMINGTON    CLOUDY    49  42  77 CALM      30.05F

$$




USA.gov is the U.S. government's official web portal to all federal, state and local government web resources and services.